Location: Elk Forest
(39.5314°N, 75.8738°W)
Time: 12:35:00
(UTC-04:00)

Daily predictions for brighter satellites

Satellite Brightness Start Highest point End
(mag) Time Altitude Azimuth Time Altitude Azimuth Time Altitude Azimuth
Cosmos 1725 Rocket 4.5 20:38:16 10° SSE 20:43:55 40° E 20:49:37 10° NNE
USA 238 DEB 3.8 20:39:21 10° SSW 20:46:01 57° ESE 20:52:47 10° NE
USA 238 3.8 20:39:29 10° SSW 20:46:07 57° ESE 20:52:53 10° NE
Meteor 2-12 Rocket 4.4 20:41:20 10° S 20:47:22 76° E 20:53:30 10° N
Resurs 1-3 3.7 20:44:38 10° SSE 20:48:57 63° ENE 20:53:18 10° N
Cosmos 1980 Rocket 2.8 20:44:35 10° N 20:49:58 43° ENE 20:55:21 10° SE
Cosmos 1500 3.7 20:46:33 10° N 20:50:15 42° E 20:53:55 10° SSE
Shenzhou-11 Module 2.1 20:47:24 10° WSW 20:50:22 75° NNW 20:53:21 10° ENE
BREEZE-M R/B 3.0 20:47:14 10° SW 20:52:38 52° SE 20:55:38 10° ENE
ISS -2.8 20:51:06 10° SSW 20:53:55 27° SE 20:56:43 10° ENE
Cosmos 1812 2.8 20:56:05 10° S 20:59:55 80° W 21:03:47 10° N
YAOGAN 6 3.2 20:57:23 10° S 21:01:03 59° W 21:04:43 10° NNW
Cosmos 1802 Rocket 4.2 20:57:03 10° S 21:03:20 85° W 21:09:46 10° N
Cosmos 1833 Rocket 3.6 20:58:41 10° SW 21:04:11 54° WNW 21:09:43 10° NNE
Cosmos 1666 4.3 21:02:14 10° NNE 21:05:10 20° ENE 21:07:35 12° ESE
Cosmos 1743 4.3 21:03:38 10° NNE 21:06:25 19° ENE 21:08:39 12° ESE
H-2A R/B 3.3 21:03:35 11° ESE 21:07:22 24° ENE 21:11:20 10° NNE
Cosmos 304 Rocket 4.1 21:03:59 10° S 21:08:31 43° ESE 21:13:05 10° NNE
DNEPR-1 R/B 3.7 21:05:33 10° S 21:09:33 47° ESE 21:13:58 10° NE
Abrixas rocket 3.5 21:11:57 10° S 21:14:19 19° SE 21:15:55 14° E
Cosmos 44 4.4 21:12:53 10° NW 21:17:58 45° WSW 21:23:06 10° S
Cosmos 2208 Rocket 4.3 21:13:25 10° S 21:18:18 43° ESE 21:23:10 10° NNE
ERS-2 3.2 21:15:03 10° S 21:18:35 45° W 21:22:09 10° NNW
ATLAS CENTAUR R/B 1.7 21:14:51 10° NNW 21:19:23 67° ENE 21:23:09 16° SE
SL-24 R/B 4.5 21:15:06 10° S 21:19:55 86° W 21:25:02 10° N
NOSS 3-2 (A) 3.4 21:14:22 10° SSW 21:20:02 56° ESE 21:26:15 10° NE
USA 234 3.6 21:15:15 10° NE 21:21:48 72° NW 21:28:19 10° WSW
NOSS 3-2 (C) 3.7 21:18:02 10° S 21:23:27 41° ESE 21:29:21 10° NE
Cosmos 1975 Rocket 3.8 21:22:29 15° SSE 21:25:30 33° E 21:29:24 10° NNE
Okean 1 Rocket 3.0 21:21:24 10° N 21:25:45 67° E 21:29:27 14° SSE
Cosmos 1674 Rocket 4.1 21:22:12 10° SSW 21:26:36 62° W 21:31:02 10° N
Cosmos 1242 Rocket 3.8 21:23:41 10° NNE 21:26:49 26° ENE 21:28:22 19° ESE
Cosmos 1378 Rocket 3.4 21:22:39 10° S 21:26:58 78° E 21:31:17 10° N
Cosmos 2233 Rocket 4.1 21:21:55 10° SSE 21:27:53 56° E 21:33:55 10° NNE
Resurs 01 Rocket 2.6 21:26:28 10° S 21:30:40 45° W 21:34:55 10° NNW
ERS-1 Rocket 3.9 21:28:00 17° ESE 21:31:08 33° ENE 21:35:37 10° N
Atlas Centaur 2 2.5 21:28:50 10° SW 21:31:30 19° S 21:32:11 18° SSE
MetOp-A 4.4 21:27:26 16° SE 21:31:36 53° ENE 21:36:49 10° N
Tiangong 2 1.6 21:30:04 10° SW 21:33:00 37° SSE 21:34:27 23° E
Cosmos 2082 Rocket 4.0 21:29:15 10° SW 21:34:23 35° WNW 21:39:34 10° N
Cosmos 1975 2.9 21:31:41 10° N 21:35:42 58° E 21:38:14 21° SSE
COSMOS 2487 3.3 21:33:28 10° SSW 21:36:52 51° WNW 21:40:18 10° N
Cosmos 2322 Rocket 3.1 21:33:38 10° N 21:38:44 34° ENE 21:42:00 19° ESE
Meteor 1-12 Rocket 4.4 21:37:02 10° N 21:42:56 64° E 21:47:14 19° SSE
SL-16 R/B 2.9 21:39:54 10° N 21:45:15 41° ENE 21:48:26 22° ESE
Timation 2 Rocket 3.8 21:43:57 10° S 21:49:48 63° ESE 21:55:46 10° NNE
ARGOS 3.1 21:49:16 19° SSE 21:53:11 85° ENE 21:58:38 10° NNW
Meteor 1-19 Rocket 4.3 21:49:41 12° S 21:55:09 69° E 22:01:03 10° NNE
SPOT 5 3.6 21:54:03 25° ESE 21:55:35 32° ENE 21:59:33 10° N
CENTAUR R/B 3.1 21:55:22 24° SSE 21:57:51 32° ESE 22:03:32 10° NE
GPS 2-04 Rocket1 3.6 21:54:44 10° W 21:58:41 37° SSW 21:59:43 32° SSE
SJ 16-02 3.5 22:01:46 10° NNE 22:03:49 13° ENE 22:05:00 12° ENE
Helios 1A 3.5 22:03:55 33° ESE 22:05:05 42° ENE 22:09:01 10° N
ATLAS 3B R/B 3.5 22:00:37 10° SW 22:07:39 55° NW 22:14:26 10° NNE
Cosmos 1464 Rocket 4.2 22:09:53 27° SSE 22:13:13 55° E 22:19:25 10° NNE
USA 32 4.0 22:12:43 10° N 22:17:58 71° E 22:20:04 36° SSE
Cosmos 2084 3.3 22:17:48 22° SSW 22:20:28 70° ESE 22:24:35 10° NE
Terra 2.8 22:20:00 28° E 22:21:01 31° ENE 22:25:11 10° N
USA 245 2.8 22:25:00 67° SW 22:25:15 72° W 22:28:59 10° NNW
Lacrosse 5 rocket 3.8 22:22:41 10° NNW 22:25:25 16° NNE 22:27:54 11° ENE
Meteor 1-23 Rocket 4.4 22:24:26 38° SE 22:26:03 50° E 22:31:25 10° NNE
Cosmos 1937 Rocket 3.4 22:21:04 10° NNW 22:26:14 81° ENE 22:27:54 44° SSE
Shenzhou-11 Module 3.0 22:23:47 10° WNW 22:26:38 41° N 22:26:59 39° NNE
Aureole 2 Rocket 3.8 22:24:46 10° N 22:26:40 24° NE 22:26:40 24° NE
ISS -2.0 22:27:19 10° W 22:30:19 33° NNW 22:33:19 10° NE
Cosmos 2360 Rocket 2.9 22:26:02 10° N 22:31:19 39° ENE 22:33:03 32° E
SL-08 RB Rocket 4.5 22:29:44 27° SSW 22:31:48 46° W 22:36:12 10° NNW
Cosmos 1891 Rocket 4.4 22:29:27 34° SSE 22:32:12 69° E 22:38:28 10° NNE
CARTOSAT-1 4.1 22:31:49 41° E 22:32:14 42° ENE 22:36:19 10° N
CZ-4C R/B 4.5 22:27:53 10° NNW 22:33:27 24° NE 22:39:07 11° E
Cosmos 1980 Rocket 3.9 22:29:08 10° NW 22:33:40 25° WSW 22:37:31 13° SSW
Cosmos 2219 Rocket 4.3 22:34:36 10° NNE 22:37:33 14° NE 22:40:01 11° ENE
Cosmos 1763 Rocket 3.7 22:34:07 17° SSW 22:38:18 71° WNW 22:43:36 10° NNE
Meteor 2-9 Rocket 4.2 22:33:23 10° NNW 22:38:42 74° W 22:40:44 39° S
Cosmos 841 Rocket 3.4 22:37:55 36° SSW 22:40:06 83° ESE 22:45:24 10° NNE
Cosmos 540 Rocket 3.6 22:41:48 48° ESE 22:42:03 49° ESE 22:47:02 10° NNE
SPOT 1/Viking Rocket 3.5 22:40:44 47° S 22:42:18 86° WSW 22:47:31 10° NNW
Cosmos 2333 Rocket 4.3 22:40:07 10° NNE 22:43:12 15° NE 22:45:46 11° ENE
Okean 2 4.3 22:45:24 36° ENE 22:45:24 36° ENE 22:48:33 10° NNE
H-2A R/B 3.1 22:44:12 23° SSW 22:46:35 36° W 22:51:10 10° NNW
COSMOS 2428 4.2 22:42:32 10° N 22:47:01 23° NE 22:48:47 20° E
CZ-2C R/B 3.6 22:43:03 10° NNE 22:47:57 32° E 22:47:57 32° E
DMSP B5D2-2 4.5 22:43:47 10° N 22:49:00 63° WNW 22:52:04 25° SSW
Meteor 2-4 Rocket 4.1 22:45:41 23° SSW 22:49:01 58° WNW 22:54:29 10° N
Abrixas rocket 4.3 22:47:20 10° WSW 22:48:33 20° W 22:48:33 20° W
Helios 1B rocket 2.5 22:48:07 10° N 22:52:15 75° WNW 22:52:46 64° SW
Cosmos 1340 Rocket 3.3 22:51:32 47° WSW 22:52:18 56° W 22:56:19 10° N
IGS 5A 3.4 22:53:25 76° ENE 22:53:25 76° ENE 22:57:33 10° N
Cosmos 1833 4.1 22:53:11 42° SSW 22:55:12 82° ESE 23:00:56 10° NNE
Cosmos 1455 Rocket 3.6 22:51:08 10° NNW 22:55:21 52° W 22:56:06 46° SW
ATLAS CENTAUR R/B 4.0 22:55:37 10° W 22:57:55 14° WSW 22:59:24 12° SW
Cosmos 1025 Rocket 3.7 22:59:55 42° ENE 22:59:55 42° ENE 23:03:21 10° NNE
Cosmos 372 Rocket 4.5 22:56:00 10° N 23:00:55 44° ENE 23:01:22 42° E
Cosmos 1356 4.4 23:02:48 44° WNW 23:02:48 44° WNW 23:05:49 10° N
Spot 1 4.0 23:04:57 73° W 23:04:57 73° W 23:08:56 10° NNW
Tiangong 2 4.1 23:06:33 10° W 23:06:45 11° W 23:06:45 11° W
BREEZE M DEB (TANK) 3.3 23:07:37 10° WNW 23:13:13 43° WSW 23:13:13 43° WSW
Meteor 1-29 4.2 23:10:49 10° N 23:13:38 41° NW 23:13:38 41° NW
Cosmos 2322 3.7 23:08:37 10° NNW 23:14:19 65° ENE 23:15:05 59° ESE
Meteor 1-15 Rocket 4.3 23:09:57 10° NNW 23:15:42 74° W 23:16:45 58° SSW
Cosmos 1125 Rocket 3.7 23:12:02 10° N 23:17:13 57° ENE 23:17:27 56° E
Cosmos 2227 Rocket 4.4 23:21:10 11° ENE 23:21:10 11° ENE 23:21:36 10° ENE
Cosmos 2322 Rocket 3.3 23:17:45 10° NW 23:22:40 32° WSW 23:23:50 29° SW
Cosmos 1092 Rocket 4.0 23:17:25 10° N 23:23:47 71° E 23:24:43 61° SE
Cosmos 1066 Rocket 4.0 23:24:23 73° E 23:24:24 73° E 23:29:47 10° NNE
Cosmos 2237 Rocket 4.2 23:22:09 10° N 23:25:52 17° NE 23:27:50 15° ENE
SL-16 R/B 3.6 23:24:26 10° NW 23:29:07 27° WSW 23:30:19 25° WSW
Nadezhda 4 Rocket 4.1 23:24:13 10° NNW 23:30:29 71° W 23:31:47 55° SSW
Cosmos 836 Rocket 4.4 23:31:57 73° WSW 23:32:16 76° WNW 23:37:30 10° NNE
SPOT 5 4.5 23:33:17 21° WSW 23:33:44 21° W 23:37:07 10° NW
Cosmos 2237 4.1 23:34:49 10° NNW 23:40:34 79° WSW 23:40:45 78° SW
CZ-2C R/B 3.3 23:41:02 61° WSW 23:41:14 61° W 23:46:41 10° NNW
SJ 16-02 2.1 23:38:27 10° NNW 23:42:00 50° WNW 23:42:00 50° WNW
Cosmos 2219 3.6 23:44:28 52° ENE 23:44:28 52° ENE 23:49:18 10° NNE
ADEOS Rocket 4.3 23:41:10 10° NE 23:44:21 22° ENE 23:44:21 22° ENE
CENTAUR R/B 3.5 23:42:29 10° WSW 23:48:13 44° NW 23:54:47 10° NNE
Mayak 0.8 23:48:22 10° NE 23:50:06 20° NE 23:50:06 20° NE
Cosmos 2058 Rocket 4.3 23:48:48 10° N 23:52:00 36° NE 23:52:00 36° NE
